This is the latest recevied weather packets stored in our database for station/object N4OOJ-13. If no packets are shown the sender has not sent any weather packets the latest 10 day(s).
| Time | Temp. | Humidity | Pressure | Rain* | Wind** | Luminosity | Snow |
|---|---|---|---|---|---|---|---|
| 1777506627 | 25.56° C | 70% | 1010.6 hPa | 0 mm | - | - | - |
| 1777506026 | 26.11° C | 66% | 1010.6 hPa | 0 mm | - | - | - |
| 1777505426 | 26.67° C | 65% | 1010.8 hPa | 0 mm | - | - | - |
| 1777504820 | 27.22° C | 64% | 1011 hPa | 0 mm | - | - | - |
| 1777504232 | 27.22° C | 64% | 1011.2 hPa | 0 mm | - | - | - |
| 1777503620 | 28.33° C | 61% | 1011 hPa | 0 mm | - | - | - |
| 1777503020 | 28.89° C | 60% | 1010.9 hPa | 0 mm | - | - | - |
| 1777502436 | 30.56° C | 55% | 1010.9 hPa | 0 mm | - | - | - |
| 1777501831 | 31.11° C | 53% | 1011 hPa | 0 mm | - | - | - |
| 1777501226 | 31.67° C | 51% | 1011 hPa | 0 mm | - | - | - |
| 1777500625 | 31.11° C | 54% | 1011.1 hPa | 0 mm | - | - | - |
| 1777500021 | 29.44° C | 57% | 1011.2 hPa | 0 mm | - | - | - |
| 1777499426 | 27.78° C | 62% | 1011.3 hPa | 0 mm | - | - | - |
| 1777498821 | 27.22° C | 63% | 1011.6 hPa | 0 mm | - | - | - |
| 1777498222 | 27.22° C | 64% | 1011.7 hPa | 0 mm | - | - | - |
| 1777497616 | 27.78° C | 62% | 1011.7 hPa | 0 mm | - | - | - |
| 1777497027 | 28.33° C | 60% | 1011.8 hPa | 0 mm | - | - | - |
| 1777496421 | 28.89° C | 57% | 1011.8 hPa | 0 mm | - | - | - |
| 1777495832 | 28.89° C | 58% | 1011.8 hPa | 0 mm | - | - | - |
| 1777495228 | 28.33° C | 59% | 1011.9 hPa | 0 mm | - | - | - |
| 1777494624 | 28.89° C | 58% | 1012 hPa | 0 mm | - | - | - |
| 1777494021 | 29.44° C | 56% | 1012.2 hPa | 0 mm | - | - | - |
| 1777493426 | 28.89° C | 58% | 1012.7 hPa | 0 mm | - | - | - |
| 1777492820 | 27.78° C | 63% | 1012.9 hPa | 0 mm | - | - | - |
| 1777492221 | 27.78° C | 64% | 1012.9 hPa | 0 mm | - | - | - |
* Rain latest hour (hover to see other rain measurements)
** Current wind speed in m/s (hover to see current wind gust speed)